Time,TemperatureF,DewpointF,PressureIn,WindDirection,WindDirectionDegrees,WindSpeedMPH,WindSpeedGustMPH,Humidity,HourlyPrecipIn,Conditions,Clouds,dailyrainin,SolarRadiationWatts/m^2,SoftwareType,DateUTC
2013-07-04 00:01:00,67.4,52.1,29.86,North,-999,6.0,7.0,58,0.00,,,0.00,0.00,VWS V14.01,2013-07-04 06:01:00,
2013-07-04 00:06:00,68.3,52.0,29.86,North,-999,5.0,7.0,56,0.00,,,0.00,0.00,VWS V14.01,2013-07-04 06:06:00,
2013-07-04 00:10:00,69.0,51.2,29.86,North,-999,6.0,7.0,53,0.00,,,0.00,0.00,VWS V14.01,2013-07-04 06:10:00,
2013-07-04 00:15:00,69.5,50.6,29.87,North,-999,7.0,8.0,51,0.00,,,0.00,0.00,VWS V14.01,2013-07-04 06:15:00,
2013-07-04 00:20:00,69.8,51.4,29.87,North,-999,4.0,7.0,52,0.00,,,0.00,0.00,VWS V14.01,2013-07-04 06:20:00,
2013-07-04 00:25:00,69.3,51.5,29.87,North,-999,6.0,7.0,53,0.00,,,0.00,0.00,VWS V14.01,2013-07-04 06:25:00,
2013-07-04 00:30:00,69.2,50.8,29.86,North,-999,6.0,7.0,52,0.00,,,0.00,0.00,VWS V14.01,2013-07-04 06:30:00,
2013-07-04 00:35:00,69.1,51.3,29.86,North,-999,4.0,7.0,53,0.00,,,0.00,0.00,VWS V14.01,2013-07-04 06:35:00,
2013-07-04 00:40:00,68.9,50.6,29.86,North,-999,9.0,11.0,52,0.00,,,0.00,0.00,VWS V14.01,2013-07-04 06:40:00,
2013-07-04 00:45:00,69.6,50.2,29.86,North,-999,10.0,12.0,50,0.00,,,0.00,0.00,VWS V14.01,2013-07-04 06:45:00,
2013-07-04 00:50:00,69.7,50.2,29.86,North,-999,9.0,12.0,50,0.00,,,0.00,0.00,VWS V14.01,2013-07-04 06:50:00,
2013-07-04 00:55:00,69.1,50.2,29.86,North,-999,5.0,12.0,51,0.00,,,0.00,0.00,VWS V14.01,2013-07-04 06:55:00,
2013-07-04 01:00:00,68.8,50.5,29.86,North,-999,10.0,10.0,52,0.00,,,0.00,0.00,VWS V14.01,2013-07-04 07:00:00,
2013-07-04 01:05:00,68.4,50.1,29.86,North,-999,7.0,11.0,52,0.00,,,0.00,0.00,VWS V14.01,2013-07-04 07:05:00,
2013-07-04 01:10:00,68.3,50.0,29.86,North,-999,6.0,7.0,52,0.00,,,0.00,0.00,VWS V14.01,2013-07-04 07:10:00,
2013-07-04 01:15:00,68.5,50.2,29.86,North,-999,7.0,9.0,52,0.00,,,0.00,0.00,VWS V14.01,2013-07-04 07:15:00,
2013-07-04 01:20:00,68.3,50.5,29.86,North,-999,5.0,8.0,53,0.00,,,0.00,0.00,VWS V14.01,2013-07-04 07:20:00,
2013-07-04 01:25:00,68.1,50.3,29.86,North,-999,6.0,8.0,53,0.00,,,0.00,0.00,VWS V14.01,2013-07-04 07:25:00,
2013-07-04 01:30:00,67.7,50.5,29.86,North,-999,5.0,9.0,54,0.00,,,0.00,0.00,VWS V14.01,2013-07-04 07:30:00,
2013-07-04 01:35:00,67.5,50.3,29.86,North,-999,7.0,9.0,54,0.00,,,0.00,0.00,VWS V14.01,2013-07-04 07:35:00,
2013-07-04 01:40:00,67.7,50.0,29.85,North,-999,6.0,7.0,53,0.00,,,0.00,0.00,VWS V14.01,2013-07-04 07:40:00,
2013-07-04 01:45:00,67.5,50.3,29.85,North,-999,6.0,7.0,54,0.00,,,0.00,0.00,VWS V14.01,2013-07-04 07:45:00,
2013-07-04 01:50:00,67.0,50.3,29.85,North,-999,7.0,7.0,55,0.00,,,0.00,0.00,VWS V14.01,2013-07-04 07:50:00,
2013-07-04 01:55:00,66.7,50.0,29.85,North,-999,6.0,7.0,55,0.00,,,0.00,0.00,VWS V14.01,2013-07-04 07:55:00,
2013-07-04 02:00:00,66.6,50.0,29.85,North,-999,5.0,7.0,55,0.00,,,0.00,0.00,VWS V14.01,2013-07-04 08:00:00,
2013-07-04 02:05:00,66.6,50.0,29.85,North,-999,5.0,7.0,55,0.00,,,0.00,0.00,VWS V14.01,2013-07-04 08:05:00,
2013-07-04 02:10:00,66.5,49.8,29.85,North,-999,6.0,7.0,55,0.00,,,0.00,0.00,VWS V14.01,2013-07-04 08:10:00,
2013-07-04 02:15:00,66.6,50.0,29.85,North,-999,6.0,7.0,55,0.00,,,0.00,0.00,VWS V14.01,2013-07-04 08:15:00,
2013-07-04 02:20:00,66.9,49.7,29.85,North,-999,6.0,7.0,54,0.00,,,0.00,0.00,VWS V14.01,2013-07-04 08:20:00,
2013-07-04 02:25:00,67.1,49.4,29.85,North,-999,6.0,7.0,53,0.00,,,0.00,0.00,VWS V14.01,2013-07-04 08:25:00,
2013-07-04 02:30:00,67.5,49.3,29.85,North,-999,5.0,6.0,52,0.00,,,0.00,0.00,VWS V14.01,2013-07-04 08:30:00,
2013-07-04 02:35:00,67.8,49.5,29.85,North,-999,6.0,9.0,52,0.00,,,0.00,0.00,VWS V14.01,2013-07-04 08:35:00,
2013-07-04 02:40:00,67.8,49.5,29.85,North,-999,5.0,7.0,52,0.00,,,0.00,0.00,VWS V14.01,2013-07-04 08:40:00,
2013-07-04 02:45:00,67.6,49.4,29.85,North,-999,5.0,7.0,52,0.00,,,0.00,0.00,VWS V14.01,2013-07-04 08:45:00,
2013-07-04 02:50:00,67.9,49.1,29.85,North,-999,5.0,6.0,51,0.00,,,0.00,0.00,VWS V14.01,2013-07-04 08:50:00,
2013-07-04 02:55:00,68.2,49.4,29.85,North,-999,6.0,9.0,51,0.00,,,0.00,0.00,VWS V14.01,2013-07-04 08:55:00,
2013-07-04 03:00:00,69.0,49.1,29.85,North,-999,5.0,6.0,49,0.00,,,0.00,0.00,VWS V14.01,2013-07-04 09:00:00,
2013-07-04 03:05:00,69.0,49.1,29.85,North,-999,0.0,6.0,49,0.00,,,0.00,0.00,VWS V14.01,2013-07-04 09:05:00,
2013-07-04 03:10:00,69.0,49.1,29.85,North,-999,5.0,5.0,49,0.00,,,0.00,0.00,VWS V14.01,2013-07-04 09:10:00,
2013-07-04 03:15:00,69.2,49.2,29.85,North,-999,6.0,7.0,49,0.00,,,0.00,0.00,VWS V14.01,2013-07-04 09:15:00,
2013-07-04 03:20:00,68.1,49.3,29.86,North,-999,5.0,5.0,51,0.00,,,0.00,0.00,VWS V14.01,2013-07-04 09:20:00,
2013-07-04 03:25:00,67.3,49.1,29.86,North,-999,4.0,5.0,52,0.00,,,0.00,0.00,VWS V14.01,2013-07-04 09:25:00,
2013-07-04 03:30:00,67.2,49.0,29.86,North,-999,2.0,6.0,52,0.00,,,0.00,0.00,VWS V14.01,2013-07-04 09:30:00,
2013-07-04 03:35:00,67.9,48.6,29.86,North,-999,3.0,6.0,50,0.00,,,0.00,0.00,VWS V14.01,2013-07-04 09:35:00,
2013-07-04 03:40:00,68.4,49.1,29.86,North,-999,0.0,5.0,50,0.00,,,0.00,0.00,VWS V14.01,2013-07-04 09:40:00,
2013-07-04 03:45:00,68.8,48.3,29.86,North,-999,0.0,6.0,48,0.00,,,0.00,0.00,VWS V14.01,2013-07-04 09:45:00,
2013-07-04 03:50:00,69.1,48.0,29.85,North,-999,0.0,0.0,47,0.00,,,0.00,0.00,VWS V14.01,2013-07-04 09:50:00,
2013-07-04 03:55:00,68.9,47.9,29.85,North,-999,0.0,0.0,47,0.00,,,0.00,0.00,VWS V14.01,2013-07-04 09:55:00,
2013-07-04 04:00:00,69.0,48.0,29.85,North,-999,0.0,0.0,47,0.00,,,0.00,0.00,VWS V14.01,2013-07-04 10:00:00,
2013-07-04 04:05:00,68.7,49.3,29.85,North,-999,0.0,0.0,50,0.00,,,0.00,0.00,VWS V14.01,2013-07-04 10:05:00,
2013-07-04 04:10:00,67.4,49.7,29.85,North,-999,0.0,0.0,53,0.00,,,0.00,0.00,VWS V14.01,2013-07-04 10:10:00,
2013-07-04 04:15:00,66.1,50.0,29.86,North,-999,0.0,0.0,56,0.00,,,0.00,0.00,VWS V14.01,2013-07-04 10:15:00,
2013-07-04 04:20:00,64.7,49.6,29.86,North,-999,0.0,4.0,58,0.00,,,0.00,0.00,VWS V14.01,2013-07-04 10:20:00,
2013-07-04 04:25:00,65.7,49.1,29.86,North,-999,0.0,4.0,55,0.00,,,0.00,0.00,VWS V14.01,2013-07-04 10:25:00,
2013-07-04 04:30:00,66.5,49.4,29.86,North,-999,0.0,0.0,54,0.00,,,0.00,0.00,VWS V14.01,2013-07-04 10:30:00,
2013-07-04 04:35:00,67.7,47.9,29.86,North,-999,0.0,0.0,49,0.00,,,0.00,0.00,VWS V14.01,2013-07-04 10:35:00,
2013-07-04 04:40:00,68.6,48.2,29.86,North,-999,0.0,0.0,48,0.00,,,0.00,0.00,VWS V14.01,2013-07-04 10:40:00,
2013-07-04 04:45:00,69.2,48.1,29.86,North,-999,0.0,4.0,47,0.00,,,0.00,0.00,VWS V14.01,2013-07-04 10:45:00,
2013-07-04 04:50:00,69.7,48.6,29.86,North,-999,0.0,0.0,47,0.00,,,0.00,0.00,VWS V14.01,2013-07-04 10:50:00,
2013-07-04 04:55:00,69.5,49.0,29.86,North,-999,4.0,5.0,48,0.00,,,0.00,0.00,VWS V14.01,2013-07-04 10:55:00,
2013-07-04 05:00:00,69.6,49.1,29.86,North,-999,6.0,7.0,48,0.00,,,0.00,0.00,VWS V14.01,2013-07-04 11:00:00,
2013-07-04 05:05:00,69.8,49.8,29.87,North,-999,0.0,7.0,49,0.00,,,0.00,0.00,VWS V14.01,2013-07-04 11:05:00,
2013-07-04 05:10:00,69.5,50.6,29.87,North,-999,0.0,4.0,51,0.00,,,0.00,0.00,VWS V14.01,2013-07-04 11:10:00,
2013-07-04 05:15:00,69.0,50.1,29.87,North,-999,0.0,4.0,51,0.00,,,0.00,0.00,VWS V14.01,2013-07-04 11:15:00,
2013-07-04 05:20:00,69.0,50.1,29.87,North,-999,0.0,0.0,51,0.00,,,0.00,0.00,VWS V14.01,2013-07-04 11:20:00,
2013-07-04 05:25:00,68.9,50.0,29.87,North,-999,0.0,0.0,51,0.00,,,0.00,0.00,VWS V14.01,2013-07-04 11:25:00,
2013-07-04 05:30:00,69.1,50.8,29.87,North,-999,0.0,4.0,52,0.00,,,0.00,0.00,VWS V14.01,2013-07-04 11:30:00,
2013-07-04 05:35:00,69.1,50.8,29.87,North,-999,0.0,4.0,52,0.00,,,0.00,0.00,VWS V14.01,2013-07-04 11:35:00,
2013-07-04 05:40:00,68.6,50.3,29.87,North,-999,0.0,0.0,52,0.00,,,0.00,5.00,VWS V14.01,2013-07-04 11:40:00,
2013-07-04 05:45:00,68.6,51.3,29.87,North,-999,0.0,6.0,54,0.00,,,0.00,9.00,VWS V14.01,2013-07-04 11:45:00,
2013-07-04 05:50:00,69.1,51.3,29.87,North,-999,0.0,0.0,53,0.00,,,0.00,12.00,VWS V14.01,2013-07-04 11:50:00,
2013-07-04 05:55:00,69.6,51.7,29.88,North,-999,0.0,5.0,53,0.00,,,0.00,14.00,VWS V14.01,2013-07-04 11:55:00,
2013-07-04 06:00:00,69.7,52.3,29.87,North,-999,0.0,6.0,54,0.00,,,0.00,18.00,VWS V14.01,2013-07-04 12:00:00,
2013-07-04 06:05:00,69.7,52.8,29.88,North,-999,0.0,7.0,55,0.00,,,0.00,21.00,VWS V14.01,2013-07-04 12:05:00,
2013-07-04 06:10:00,69.7,53.3,29.88,North,-999,3.0,11.0,56,0.00,,,0.00,25.00,VWS V14.01,2013-07-04 12:10:00,
2013-07-04 06:15:00,69.5,53.1,29.88,North,-999,0.0,11.0,56,0.00,,,0.00,26.00,VWS V14.01,2013-07-04 12:15:00,
2013-07-04 06:20:00,69.6,53.2,29.88,North,-999,0.0,0.0,56,0.00,,,0.00,28.00,VWS V14.01,2013-07-04 12:20:00,
2013-07-04 06:25:00,69.8,53.4,29.88,North,-999,0.0,0.0,56,0.00,,,0.00,30.00,VWS V14.01,2013-07-04 12:25:00,
2013-07-04 06:30:00,69.9,53.5,29.89,North,-999,0.0,1.0,56,0.00,,,0.00,33.00,VWS V14.01,2013-07-04 12:30:00,
2013-07-04 06:35:00,70.2,54.3,29.89,North,-999,9.0,12.0,57,0.00,,,0.00,39.00,VWS V14.01,2013-07-04 12:35:00,
2013-07-04 06:40:00,70.2,55.2,29.89,North,-999,5.0,10.0,59,0.00,,,0.00,40.00,VWS V14.01,2013-07-04 12:40:00,
2013-07-04 06:44:00,70.1,55.1,29.89,North,-999,9.0,10.0,59,0.00,,,0.00,42.00,VWS V14.01,2013-07-04 12:44:00,
2013-07-04 06:49:00,70.3,55.3,29.89,North,-999,4.0,9.0,59,0.00,,,0.00,46.00,VWS V14.01,2013-07-04 12:49:00,
2013-07-04 06:54:00,70.4,55.9,29.89,North,-999,4.0,9.0,60,0.00,,,0.00,49.00,VWS V14.01,2013-07-04 12:54:00,
2013-07-04 06:59:00,70.4,56.3,29.89,North,-999,9.0,9.0,61,0.00,,,0.00,53.00,VWS V14.01,2013-07-04 12:59:00,
2013-07-04 07:04:00,70.1,56.5,29.89,North,-999,7.0,14.0,62,0.00,,,0.00,58.00,VWS V14.01,2013-07-04 13:04:00,
2013-07-04 07:09:00,70.0,57.3,29.90,North,-999,9.0,11.0,64,0.00,,,0.00,77.00,VWS V14.01,2013-07-04 13:09:00,
2013-07-04 07:14:00,70.0,57.3,29.90,North,-999,4.0,11.0,64,0.00,,,0.00,100.00,VWS V14.01,2013-07-04 13:14:00,
2013-07-04 07:19:00,70.7,57.5,29.90,North,-999,0.0,0.0,63,0.00,,,0.00,120.00,VWS V14.01,2013-07-04 13:19:00,
2013-07-04 07:24:00,71.8,58.1,29.90,North,-999,0.0,0.0,62,0.00,,,0.00,141.00,VWS V14.01,2013-07-04 13:24:00,
2013-07-04 07:29:00,71.6,57.0,29.90,North,-999,1.0,6.0,60,0.00,,,0.00,149.00,VWS V14.01,2013-07-04 13:29:00,
2013-07-04 07:34:00,71.4,56.3,29.90,North,-999,6.0,6.0,59,0.00,,,0.00,167.00,VWS V14.01,2013-07-04 13:34:00,
2013-07-04 07:39:00,71.3,56.7,29.90,North,-999,3.0,6.0,60,0.00,,,0.00,192.00,VWS V14.01,2013-07-04 13:39:00,
2013-07-04 07:44:00,71.5,55.5,29.90,North,-999,7.0,9.0,57,0.00,,,0.00,200.00,VWS V14.01,2013-07-04 13:44:00,
2013-07-04 07:49:00,71.8,58.1,29.90,North,-999,9.0,12.0,62,0.00,,,0.00,125.00,VWS V14.01,2013-07-04 13:49:00,
2013-07-04 07:54:00,71.8,59.0,29.90,North,-999,9.0,15.0,64,0.00,,,0.00,113.00,VWS V14.01,2013-07-04 13:54:00,
2013-07-04 07:59:00,71.7,59.8,29.90,North,-999,7.0,10.0,66,0.00,,,0.00,279.00,VWS V14.01,2013-07-04 13:59:00,
2013-07-04 08:04:00,71.9,60.4,29.90,North,-999,7.0,11.0,67,0.00,,,0.00,329.00,VWS V14.01,2013-07-04 14:04:00,
2013-07-04 08:09:00,72.0,60.0,29.90,North,-999,6.0,6.0,66,0.00,,,0.00,350.00,VWS V14.01,2013-07-04 14:09:00,
2013-07-04 08:14:00,72.2,59.8,29.90,North,-999,4.0,9.0,65,0.00,,,0.00,353.00,VWS V14.01,2013-07-04 14:14:00,
2013-07-04 08:19:00,72.6,60.6,29.90,North,-999,7.0,10.0,66,0.00,,,0.00,380.00,VWS V14.01,2013-07-04 14:19:00,
2013-07-04 08:24:00,73.1,60.7,29.90,North,-999,8.0,11.0,65,0.00,,,0.00,392.00,VWS V14.01,2013-07-04 14:24:00,
2013-07-04 08:29:00,73.4,60.9,29.90,North,-999,10.0,11.0,65,0.00,,,0.00,404.00,VWS V14.01,2013-07-04 14:29:00,
2013-07-04 08:34:00,73.5,61.0,29.90,North,-999,7.0,12.0,65,0.00,,,0.00,417.00,VWS V14.01,2013-07-04 14:34:00,
2013-07-04 08:39:00,73.6,61.1,29.90,North,-999,5.0,12.0,65,0.00,,,0.00,431.00,VWS V14.01,2013-07-04 14:39:00,
2013-07-04 08:44:00,73.8,61.3,29.90,North,-999,6.0,12.0,65,0.00,,,0.00,446.00,VWS V14.01,2013-07-04 14:44:00,
2013-07-04 08:49:00,73.9,61.8,29.90,North,-999,7.0,7.0,66,0.00,,,0.00,457.00,VWS V14.01,2013-07-04 14:49:00,
2013-07-04 08:54:00,74.3,61.8,29.90,North,-999,6.0,11.0,65,0.00,,,0.00,357.00,VWS V14.01,2013-07-04 14:54:00,
2013-07-04 08:59:00,74.4,61.4,29.90,North,-999,7.0,11.0,64,0.00,,,0.00,487.00,VWS V14.01,2013-07-04 14:59:00,
2013-07-04 09:04:00,74.6,62.1,29.90,North,-999,0.0,12.0,65,0.00,,,0.00,499.00,VWS V14.01,2013-07-04 15:04:00,
2013-07-04 09:09:00,75.1,62.1,29.90,North,-999,6.0,7.0,64,0.00,,,0.00,519.00,VWS V14.01,2013-07-04 15:09:00,
2013-07-04 09:14:00,75.2,61.8,29.90,North,-999,10.0,12.0,63,0.00,,,0.00,531.00,VWS V14.01,2013-07-04 15:14:00,
2013-07-04 09:19:00,75.6,62.1,29.89,North,-999,7.0,9.0,63,0.00,,,0.00,543.00,VWS V14.01,2013-07-04 15:19:00,
2013-07-04 09:24:00,76.1,61.7,29.89,North,-999,7.0,11.0,61,0.00,,,0.00,555.00,VWS V14.01,2013-07-04 15:24:00,
2013-07-04 09:29:00,76.4,62.0,29.89,North,-999,8.0,11.0,61,0.00,,,0.00,418.00,VWS V14.01,2013-07-04 15:29:00,
2013-07-04 09:34:00,76.9,61.5,29.89,North,-999,6.0,11.0,59,0.00,,,0.00,550.00,VWS V14.01,2013-07-04 15:34:00,
2013-07-04 09:39:00,77.4,60.5,29.89,North,-999,5.0,8.0,56,0.00,,,0.00,543.00,VWS V14.01,2013-07-04 15:39:00,
2013-07-04 09:44:00,77.8,60.9,29.89,North,-999,7.0,9.0,56,0.00,,,0.00,622.00,VWS V14.01,2013-07-04 15:44:00,
2013-07-04 09:49:00,78.0,61.0,29.89,North,-999,7.0,9.0,56,0.00,,,0.00,304.00,VWS V14.01,2013-07-04 15:49:00,
2013-07-04 09:54:00,77.8,60.9,29.89,North,-999,5.0,12.0,56,0.00,,,0.00,631.00,VWS V14.01,2013-07-04 15:54:00,
2013-07-04 09:59:00,78.2,61.2,29.88,North,-999,10.0,12.0,56,0.00,,,0.00,635.00,VWS V14.01,2013-07-04 15:59:00,
2013-07-04 10:04:00,78.6,62.1,29.88,North,-999,7.0,12.0,57,0.00,,,0.00,663.00,VWS V14.01,2013-07-04 16:04:00,
2013-07-04 10:09:00,78.9,60.9,29.88,North,-999,3.0,12.0,54,0.00,,,0.00,670.00,VWS V14.01,2013-07-04 16:09:00,
2013-07-04 10:14:00,79.3,61.2,29.88,North,-999,9.0,12.0,54,0.00,,,0.00,684.00,VWS V14.01,2013-07-04 16:14:00,
2013-07-04 10:19:00,79.5,61.4,29.88,North,-999,12.0,14.0,54,0.00,,,0.00,694.00,VWS V14.01,2013-07-04 16:19:00,
2013-07-04 10:24:00,79.5,61.4,29.87,North,-999,7.0,14.0,54,0.00,,,0.00,703.00,VWS V14.01,2013-07-04 16:24:00,
2013-07-04 10:29:00,79.8,61.2,29.88,North,-999,9.0,12.0,53,0.00,,,0.00,712.00,VWS V14.01,2013-07-04 16:29:00,
2013-07-04 10:34:00,80.1,61.4,29.88,North,-999,4.0,12.0,53,0.00,,,0.00,726.00,VWS V14.01,2013-07-04 16:34:00,
2013-07-04 10:39:00,80.4,60.6,29.88,North,-999,9.0,12.0,51,0.00,,,0.00,735.00,VWS V14.01,2013-07-04 16:39:00,
2013-07-04 10:44:00,80.7,60.3,29.87,North,-999,7.0,14.0,50,0.00,,,0.00,747.00,VWS V14.01,2013-07-04 16:44:00,
2013-07-04 10:49:00,81.2,58.5,29.88,North,-999,12.0,13.0,46,0.00,,,0.00,759.00,VWS V14.01,2013-07-04 16:49:00,
2013-07-04 10:54:00,81.2,59.1,29.87,North,-999,11.0,13.0,47,0.00,,,0.00,770.00,VWS V14.01,2013-07-04 16:54:00,
2013-07-04 10:59:00,81.3,59.2,29.87,North,-999,9.0,13.0,47,0.00,,,0.00,780.00,VWS V14.01,2013-07-04 16:59:00,
2013-07-04 11:04:00,81.5,60.5,29.87,North,-999,12.0,15.0,49,0.00,,,0.00,791.00,VWS V14.01,2013-07-04 17:04:00,
2013-07-04 11:09:00,82.1,58.7,29.87,North,-999,5.0,7.0,45,0.00,,,0.00,802.00,VWS V14.01,2013-07-04 17:09:00,
2013-07-04 11:14:00,82.4,59.0,29.87,North,-999,7.0,14.0,45,0.00,,,0.00,812.00,VWS V14.01,2013-07-04 17:14:00,
2013-07-04 11:19:00,82.7,58.6,29.87,North,-999,5.0,9.0,44,0.00,,,0.00,821.00,VWS V14.01,2013-07-04 17:19:00,
2013-07-04 11:24:00,82.9,59.4,29.87,North,-999,4.0,12.0,45,0.00,,,0.00,828.00,VWS V14.01,2013-07-04 17:24:00,
2013-07-04 11:29:00,83.1,59.0,29.87,North,-999,3.0,12.0,44,0.00,,,0.00,835.00,VWS V14.01,2013-07-04 17:29:00,
2013-07-04 11:34:00,83.0,58.2,29.86,North,-999,6.0,12.0,43,0.00,,,0.00,844.00,VWS V14.01,2013-07-04 17:34:00,
2013-07-04 11:39:00,82.9,58.1,29.86,North,-999,6.0,8.0,43,0.00,,,0.00,851.00,VWS V14.01,2013-07-04 17:39:00,
2013-07-04 11:44:00,83.2,58.4,29.86,North,-999,0.0,8.0,43,0.00,,,0.00,860.00,VWS V14.01,2013-07-04 17:44:00,
2013-07-04 11:49:00,84.0,59.1,29.86,North,-999,4.0,10.0,43,0.00,,,0.00,868.00,VWS V14.01,2013-07-04 17:49:00,
2013-07-04 11:54:00,84.1,57.2,29.86,North,-999,5.0,13.0,40,0.00,,,0.00,877.00,VWS V14.01,2013-07-04 17:54:00,
2013-07-04 11:59:00,84.5,58.2,29.86,North,-999,5.0,10.0,41,0.00,,,0.00,882.00,VWS V14.01,2013-07-04 17:59:00,
2013-07-04 12:04:00,84.6,57.6,29.85,North,-999,6.0,10.0,40,0.00,,,0.00,886.00,VWS V14.01,2013-07-04 18:04:00,
2013-07-04 12:09:00,85.0,57.3,29.85,North,-999,8.0,10.0,39,0.00,,,0.00,886.00,VWS V14.01,2013-07-04 18:09:00,
2013-07-04 12:14:00,85.4,56.2,29.85,North,-999,4.0,11.0,37,0.00,,,0.00,893.00,VWS V14.01,2013-07-04 18:14:00,
2013-07-04 12:19:00,85.3,57.6,29.85,North,-999,10.0,12.0,39,0.00,,,0.00,904.00,VWS V14.01,2013-07-04 18:19:00,
2013-07-04 12:24:00,85.0,55.1,29.85,North,-999,4.0,13.0,36,0.00,,,0.00,905.00,VWS V14.01,2013-07-04 18:24:00,
2013-07-04 12:29:00,85.2,55.3,29.84,North,-999,10.0,10.0,36,0.00,,,0.00,926.00,VWS V14.01,2013-07-04 18:29:00,
2013-07-04 12:34:00,85.2,54.5,29.84,North,-999,4.0,10.0,35,0.00,,,0.00,930.00,VWS V14.01,2013-07-04 18:34:00,
2013-07-04 12:39:00,85.6,53.2,29.84,North,-999,6.0,6.0,33,0.00,,,0.00,939.00,VWS V14.01,2013-07-04 18:39:00,
2013-07-04 12:44:00,85.9,54.3,29.84,North,-999,0.0,6.0,34,0.00,,,0.00,947.00,VWS V14.01,2013-07-04 18:44:00,
2013-07-04 12:49:00,86.4,54.7,29.83,North,-999,3.0,9.0,34,0.00,,,0.00,954.00,VWS V14.01,2013-07-04 18:49:00,
2013-07-04 12:54:00,86.2,55.4,29.83,North,-999,0.0,9.0,35,0.00,,,0.00,969.00,VWS V14.01,2013-07-04 18:54:00,
2013-07-04 12:59:00,86.5,54.0,29.83,North,-999,0.0,7.0,33,0.00,,,0.00,984.00,VWS V14.01,2013-07-04 18:59:00,
2013-07-04 13:04:00,86.8,54.3,29.83,North,-999,5.0,11.0,33,0.00,,,0.00,979.00,VWS V14.01,2013-07-04 19:04:00,
2013-07-04 13:09:00,86.4,53.9,29.83,North,-999,4.0,6.0,33,0.00,,,0.00,993.00,VWS V14.01,2013-07-04 19:09:00,
2013-07-04 13:13:00,86.7,54.2,29.83,North,-999,0.0,6.0,33,0.00,,,0.00,956.00,VWS V14.01,2013-07-04 19:13:00,
2013-07-04 13:18:00,86.8,53.4,29.82,North,-999,0.0,0.0,32,0.00,,,0.00,274.00,VWS V14.01,2013-07-04 19:18:00,
2013-07-04 13:23:00,87.1,53.7,29.82,North,-999,0.0,4.0,32,0.00,,,0.00,1056.00,VWS V14.01,2013-07-04 19:23:00,
2013-07-04 13:28:00,87.8,54.3,29.82,North,-999,0.0,3.0,32,0.00,,,0.00,339.00,VWS V14.01,2013-07-04 19:28:00,
2013-07-04 13:33:00,88.0,54.5,29.82,North,-999,5.0,8.0,32,0.00,,,0.00,981.00,VWS V14.01,2013-07-04 19:33:00,
2013-07-04 13:38:00,87.8,54.3,29.82,North,-999,6.0,6.0,32,0.00,,,0.00,967.00,VWS V14.01,2013-07-04 19:38:00,
2013-07-04 13:43:00,87.9,53.5,29.81,North,-999,3.0,7.0,31,0.00,,,0.00,984.00,VWS V14.01,2013-07-04 19:43:00,
2013-07-04 13:48:00,87.6,54.1,29.82,North,-999,0.0,5.0,32,0.00,,,0.00,988.00,VWS V14.01,2013-07-04 19:48:00,
2013-07-04 13:53:00,88.0,55.3,29.82,North,-999,0.0,5.0,33,0.00,,,0.00,928.00,VWS V14.01,2013-07-04 19:53:00,
2013-07-04 13:58:00,88.8,55.2,29.82,North,-999,3.0,6.0,32,0.00,,,0.00,272.00,VWS V14.01,2013-07-04 19:58:00,
2013-07-04 14:03:00,88.2,54.7,29.82,North,-999,5.0,9.0,32,0.00,,,0.00,376.00,VWS V14.01,2013-07-04 20:03:00,
2013-07-04 14:08:00,87.7,55.1,29.82,North,-999,3.0,5.0,33,0.00,,,0.00,886.00,VWS V14.01,2013-07-04 20:08:00,
2013-07-04 14:13:00,87.8,56.0,29.82,North,-999,5.0,5.0,34,0.00,,,0.00,937.00,VWS V14.01,2013-07-04 20:13:00,
2013-07-04 14:18:00,87.9,54.4,29.81,North,-999,5.0,6.0,32,0.00,,,0.00,954.00,VWS V14.01,2013-07-04 20:18:00,
2013-07-04 14:23:00,88.1,55.4,29.81,North,-999,0.0,8.0,33,0.00,,,0.00,1062.00,VWS V14.01,2013-07-04 20:23:00,
2013-07-04 14:28:00,88.8,55.2,29.81,North,-999,0.0,5.0,32,0.00,,,0.00,1014.00,VWS V14.01,2013-07-04 20:28:00,
2013-07-04 14:33:00,88.8,54.3,29.81,North,-999,5.0,6.0,31,0.00,,,0.00,1005.00,VWS V14.01,2013-07-04 20:33:00,
2013-07-04 14:38:00,89.1,54.6,29.81,North,-999,5.0,5.0,31,0.00,,,0.00,619.00,VWS V14.01,2013-07-04 20:38:00,
2013-07-04 14:43:00,88.8,54.3,29.81,North,-999,0.0,5.0,31,0.00,,,0.00,436.00,VWS V14.01,2013-07-04 20:43:00,
2013-07-04 14:48:00,89.3,54.7,29.80,North,-999,0.0,5.0,31,0.00,,,0.00,965.00,VWS V14.01,2013-07-04 20:48:00,
2013-07-04 14:53:00,90.1,54.5,29.80,North,-999,1.0,6.0,30,0.00,,,0.00,923.00,VWS V14.01,2013-07-04 20:53:00,
2013-07-04 14:58:00,89.9,55.2,29.80,North,-999,0.0,0.0,31,0.00,,,0.00,830.00,VWS V14.01,2013-07-04 20:58:00,
2013-07-04 15:03:00,89.8,55.2,29.80,North,-999,3.0,7.0,31,0.00,,,0.00,858.00,VWS V14.01,2013-07-04 21:03:00,
2013-07-04 15:08:00,88.8,55.2,29.80,North,-999,4.0,9.0,32,0.00,,,0.00,373.00,VWS V14.01,2013-07-04 21:08:00,
2013-07-04 15:13:00,88.3,54.7,29.80,North,-999,8.0,12.0,32,0.00,,,0.00,568.00,VWS V14.01,2013-07-04 21:13:00,
2013-07-04 15:18:00,88.5,54.9,29.80,North,-999,3.0,6.0,32,0.00,,,0.00,949.00,VWS V14.01,2013-07-04 21:18:00,
2013-07-04 15:23:00,88.9,56.9,29.80,North,-999,8.0,9.0,34,0.00,,,0.00,766.00,VWS V14.01,2013-07-04 21:23:00,
2013-07-04 15:28:00,88.9,55.3,29.80,North,-999,4.0,7.0,32,0.00,,,0.00,429.00,VWS V14.01,2013-07-04 21:28:00,
2013-07-04 15:33:00,88.0,54.5,29.80,North,-999,7.0,10.0,32,0.00,,,0.00,295.00,VWS V14.01,2013-07-04 21:33:00,
2013-07-04 15:38:00,87.3,57.1,29.80,North,-999,4.0,7.0,36,0.00,,,0.00,401.00,VWS V14.01,2013-07-04 21:38:00,
2013-07-04 15:43:00,87.0,59.1,29.79,North,-999,7.0,12.0,39,0.00,,,0.00,323.00,VWS V14.01,2013-07-04 21:43:00,
2013-07-04 15:48:00,86.9,56.0,29.79,North,-999,9.0,10.0,35,0.00,,,0.00,232.00,VWS V14.01,2013-07-04 21:48:00,
2013-07-04 15:53:00,86.8,58.2,29.79,North,-999,7.0,10.0,38,0.00,,,0.00,193.00,VWS V14.01,2013-07-04 21:53:00,
2013-07-04 15:58:00,86.4,56.3,29.79,North,-999,8.0,10.0,36,0.00,,,0.00,204.00,VWS V14.01,2013-07-04 21:58:00,
2013-07-04 16:03:00,86.3,57.7,29.79,North,-999,10.0,11.0,38,0.00,,,0.00,255.00,VWS V14.01,2013-07-04 22:03:00,
2013-07-04 16:08:00,85.9,58.1,29.79,North,-999,10.0,13.0,39,0.00,,,0.00,295.00,VWS V14.01,2013-07-04 22:08:00,
2013-07-04 16:13:00,85.3,58.3,29.79,North,-999,10.0,13.0,40,0.00,,,0.00,258.00,VWS V14.01,2013-07-04 22:13:00,
2013-07-04 16:18:00,84.7,61.0,29.79,North,-999,10.0,11.0,45,0.00,,,0.00,183.00,VWS V14.01,2013-07-04 22:18:00,
2013-07-04 16:23:00,84.2,58.6,29.79,North,-999,7.0,11.0,42,0.00,,,0.00,181.00,VWS V14.01,2013-07-04 22:23:00,
2013-07-04 16:28:00,84.2,60.0,29.79,North,-999,9.0,10.0,44,0.00,,,0.00,155.00,VWS V14.01,2013-07-04 22:28:00,
2013-07-04 16:33:00,84.5,57.5,29.79,North,-999,9.0,12.0,40,0.00,,,0.00,190.00,VWS V14.01,2013-07-04 22:33:00,
2013-07-04 16:38:00,84.8,57.8,29.78,North,-999,10.0,12.0,40,0.00,,,0.00,163.00,VWS V14.01,2013-07-04 22:38:00,
2013-07-04 16:43:00,84.0,61.6,29.78,North,-999,12.0,13.0,47,0.00,,,0.00,114.00,VWS V14.01,2013-07-04 22:43:00,
2013-07-04 16:48:00,82.4,59.6,29.78,North,-999,14.0,18.0,46,0.00,,,0.00,67.00,VWS V14.01,2013-07-04 22:48:00,
2013-07-04 16:53:00,81.6,58.8,29.78,North,-999,15.0,18.0,46,0.00,,,0.00,40.00,VWS V14.01,2013-07-04 22:53:00,
2013-07-04 16:58:00,81.1,57.8,29.79,North,-999,23.0,23.0,45,0.00,,,0.00,28.00,VWS V14.01,2013-07-04 22:58:00,
2013-07-04 17:03:00,77.9,57.2,29.79,North,-999,42.0,46.0,49,0.00,,,0.00,23.00,VWS V14.01,2013-07-04 23:03:00,
2013-07-04 17:08:00,72.5,59.6,29.80,North,-999,8.0,8.0,64,0.18,,,0.18,26.00,VWS V14.01,2013-07-04 23:08:00,
2013-07-04 17:13:00,73.6,57.0,29.80,North,-999,5.0,24.0,56,0.19,,,0.19,26.00,VWS V14.01,2013-07-04 23:13:00,
2013-07-04 17:18:00,73.3,57.7,29.80,North,-999,13.0,13.0,58,0.19,,,0.19,26.00,VWS V14.01,2013-07-04 23:18:00,
2013-07-04 17:23:00,74.9,55.0,29.80,North,-999,7.0,31.0,50,0.19,,,0.19,25.00,VWS V14.01,2013-07-04 23:23:00,
2013-07-04 17:28:00,76.1,57.2,29.81,North,-999,15.0,15.0,52,0.19,,,0.19,18.00,VWS V14.01,2013-07-04 23:28:00,
2013-07-04 17:33:00,75.6,55.7,29.81,North,-999,12.0,19.0,50,0.19,,,0.19,12.00,VWS V14.01,2013-07-04 23:33:00,
2013-07-04 17:38:00,75.8,57.5,29.81,North,-999,20.0,21.0,53,0.19,,,0.19,11.00,VWS V14.01,2013-07-04 23:38:00,
2013-07-04 17:43:00,73.1,58.4,29.81,North,-999,17.0,23.0,60,0.19,,,0.19,11.00,VWS V14.01,2013-07-04 23:43:00,
2013-07-04 17:48:00,71.8,58.5,29.81,North,-999,14.0,15.0,63,0.19,,,0.19,14.00,VWS V14.01,2013-07-04 23:48:00,
2013-07-04 17:53:00,71.0,59.5,29.80,North,-999,9.0,15.0,67,0.19,,,0.19,18.00,VWS V14.01,2013-07-04 23:53:00,
2013-07-04 17:58:00,71.1,58.8,29.80,North,-999,14.0,16.0,65,0.19,,,0.19,25.00,VWS V14.01,2013-07-04 23:58:00,
2013-07-04 18:03:00,71.8,59.4,29.80,North,-999,11.0,18.0,65,0.19,,,0.19,35.00,VWS V14.01,2013-07-05 00:03:00,
2013-07-04 18:08:00,71.5,59.6,29.80,North,-999,13.0,15.0,66,0.01,,,0.19,49.00,VWS V14.01,2013-07-05 00:08:00,
2013-07-04 18:13:00,70.9,59.8,29.79,North,-999,9.0,15.0,68,0.01,,,0.19,74.00,VWS V14.01,2013-07-05 00:13:00,
2013-07-04 18:18:00,71.1,59.6,29.79,North,-999,8.0,12.0,67,0.00,,,0.19,127.00,VWS V14.01,2013-07-05 00:18:00,
2013-07-04 18:23:00,71.5,59.1,29.79,North,-999,12.0,14.0,65,0.00,,,0.19,213.00,VWS V14.01,2013-07-05 00:23:00,
2013-07-04 18:28:00,72.8,60.4,29.79,North,-999,8.0,11.0,65,0.00,,,0.19,536.00,VWS V14.01,2013-07-05 00:28:00,
2013-07-04 18:33:00,73.5,63.5,29.79,North,-999,10.0,11.0,71,0.00,,,0.19,548.00,VWS V14.01,2013-07-05 00:33:00,
2013-07-04 18:38:00,74.2,61.2,29.79,North,-999,13.0,19.0,64,0.00,,,0.19,475.00,VWS V14.01,2013-07-05 00:38:00,
2013-07-04 18:43:00,73.7,61.7,29.79,North,-999,13.0,19.0,66,0.00,,,0.19,243.00,VWS V14.01,2013-07-05 00:43:00,
2013-07-04 18:48:00,73.2,60.7,29.79,North,-999,18.0,18.0,65,0.00,,,0.19,137.00,VWS V14.01,2013-07-05 00:48:00,
2013-07-04 18:53:00,73.2,60.3,29.79,North,-999,14.0,22.0,64,0.00,,,0.19,91.00,VWS V14.01,2013-07-05 00:53:00,
2013-07-04 18:58:00,72.5,60.5,29.79,North,-999,18.0,19.0,66,0.00,,,0.19,74.00,VWS V14.01,2013-07-05 00:58:00,
2013-07-04 19:03:00,71.9,59.9,29.79,North,-999,14.0,20.0,66,0.00,,,0.19,42.00,VWS V14.01,2013-07-05 01:03:00,
2013-07-04 19:08:00,71.5,60.4,29.79,North,-999,9.0,15.0,68,0.00,,,0.19,32.00,VWS V14.01,2013-07-05 01:08:00,
2013-07-04 19:13:00,71.3,60.6,29.80,North,-999,5.0,16.0,69,0.00,,,0.19,30.00,VWS V14.01,2013-07-05 01:13:00,
2013-07-04 19:18:00,71.2,61.3,29.81,North,-999,5.0,7.0,71,0.00,,,0.19,21.00,VWS V14.01,2013-07-05 01:18:00,
2013-07-04 19:23:00,71.0,61.1,29.82,North,-999,6.0,10.0,71,0.00,,,0.19,12.00,VWS V14.01,2013-07-05 01:23:00,
2013-07-04 19:28:00,71.3,60.6,29.82,North,-999,13.0,16.0,69,0.00,,,0.19,11.00,VWS V14.01,2013-07-05 01:28:00,
2013-07-04 19:33:00,72.3,59.9,29.82,North,-999,9.0,16.0,65,0.00,,,0.19,7.00,VWS V14.01,2013-07-05 01:33:00,
2013-07-04 19:38:00,72.9,59.1,29.83,North,-999,5.0,9.0,62,0.00,,,0.19,7.00,VWS V14.01,2013-07-05 01:38:00,
2013-07-04 19:43:00,73.0,59.7,29.83,North,-999,2.0,9.0,63,0.00,,,0.19,7.00,VWS V14.01,2013-07-05 01:43:00,
2013-07-04 19:48:00,72.8,59.5,29.84,North,-999,3.0,3.0,63,0.00,,,0.19,5.00,VWS V14.01,2013-07-05 01:48:00,
2013-07-04 19:53:00,72.0,60.9,29.84,North,-999,5.0,10.0,68,0.00,,,0.19,0.00,VWS V14.01,2013-07-05 01:53:00,
2013-07-04 19:58:00,70.5,61.0,29.85,North,-999,5.0,7.0,72,0.00,,,0.19,0.00,VWS V14.01,2013-07-05 01:58:00,
2013-07-04 20:02:00,69.7,61.0,29.86,North,-999,6.0,11.0,74,0.00,,,0.19,0.00,VWS V14.01,2013-07-05 02:02:00,
2013-07-04 20:07:00,69.5,61.2,29.87,North,-999,4.0,5.0,75,0.00,,,0.19,0.00,VWS V14.01,2013-07-05 02:07:00,
2013-07-04 20:12:00,69.0,60.8,29.88,North,-999,3.0,11.0,75,0.01,,,0.20,0.00,VWS V14.01,2013-07-05 02:12:00,
2013-07-04 20:17:00,68.8,60.9,29.89,North,-999,9.0,10.0,76,0.01,,,0.20,0.00,VWS V14.01,2013-07-05 02:17:00,
2013-07-04 20:22:00,68.7,58.1,29.89,North,-999,15.0,19.0,69,0.01,,,0.20,0.00,VWS V14.01,2013-07-05 02:22:00,
2013-07-04 20:27:00,68.0,58.3,29.89,North,-999,8.0,10.0,71,0.02,,,0.21,0.00,VWS V14.01,2013-07-05 02:27:00,
2013-07-04 20:32:00,66.6,58.8,29.89,North,-999,12.0,15.0,76,0.03,,,0.22,0.00,VWS V14.01,2013-07-05 02:32:00,
2013-07-04 20:37:00,65.4,59.1,29.89,North,-999,15.0,17.0,80,0.04,,,0.23,0.00,VWS V14.01,2013-07-05 02:37:00,
2013-07-04 20:42:00,65.4,59.1,29.88,North,-999,11.0,19.0,80,0.04,,,0.23,0.00,VWS V14.01,2013-07-05 02:42:00,
2013-07-04 20:47:00,65.4,58.4,29.88,North,-999,14.0,14.0,78,0.04,,,0.24,0.00,VWS V14.01,2013-07-05 02:47:00,
2013-07-04 20:52:00,65.5,58.1,29.88,North,-999,15.0,19.0,77,0.05,,,0.24,0.00,VWS V14.01,2013-07-05 02:52:00,
2013-07-04 20:57:00,65.6,58.6,29.88,North,-999,11.0,11.0,78,0.06,,,0.25,0.00,VWS V14.01,2013-07-05 02:57:00,
2013-07-04 21:02:00,65.6,58.2,29.89,North,-999,8.0,15.0,77,0.06,,,0.25,0.00,VWS V14.01,2013-07-05 03:02:00,
2013-07-04 21:07:00,66.1,57.6,29.89,North,-999,7.0,8.0,74,0.07,,,0.26,0.00,VWS V14.01,2013-07-05 03:07:00,
2013-07-04 21:12:00,66.1,58.3,29.89,North,-999,5.0,8.0,76,0.09,,,0.28,0.00,VWS V14.01,2013-07-05 03:12:00,
2013-07-04 21:17:00,65.2,59.2,29.89,North,-999,0.0,0.0,81,0.10,,,0.30,0.00,VWS V14.01,2013-07-05 03:17:00,
2013-07-04 21:22:00,64.6,59.0,29.89,North,-999,0.0,0.0,82,0.11,,,0.31,0.00,VWS V14.01,2013-07-05 03:22:00,
2013-07-04 21:27:00,64.3,59.0,29.89,North,-999,0.0,0.0,83,0.11,,,0.32,0.00,VWS V14.01,2013-07-05 03:27:00,
2013-07-04 21:32:00,64.3,59.7,29.87,North,-999,4.0,9.0,85,0.12,,,0.33,0.00,VWS V14.01,2013-07-05 03:32:00,
2013-07-04 21:37:00,63.9,59.3,29.86,North,-999,10.0,11.0,85,0.11,,,0.34,0.00,VWS V14.01,2013-07-05 03:37:00,
2013-07-04 21:42:00,63.9,59.3,29.86,North,-999,9.0,12.0,85,0.12,,,0.35,0.00,VWS V14.01,2013-07-05 03:42:00,
2013-07-04 21:47:00,63.8,59.2,29.86,North,-999,0.0,12.0,85,0.12,,,0.35,0.00,VWS V14.01,2013-07-05 03:47:00,
2013-07-04 21:52:00,63.7,59.4,29.87,North,-999,0.0,0.0,86,0.12,,,0.35,0.00,VWS V14.01,2013-07-05 03:52:00,
2013-07-04 21:57:00,63.6,59.0,29.86,North,-999,0.0,0.0,85,0.12,,,0.35,0.00,VWS V14.01,2013-07-05 03:57:00,
2013-07-04 22:01:00,63.7,58.8,29.87,North,-999,0.0,0.0,84,0.11,,,0.35,0.00,VWS V14.01,2013-07-05 04:01:00,
2013-07-04 22:06:00,63.4,59.8,29.87,North,-999,5.0,9.0,88,0.11,,,0.35,0.00,VWS V14.01,2013-07-05 04:06:00,
2013-07-04 22:11:00,63.1,59.8,29.87,North,-999,0.0,6.0,89,0.09,,,0.35,0.00,VWS V14.01,2013-07-05 04:11:00,
2013-07-04 22:16:00,63.0,59.7,29.87,North,-999,0.0,6.0,89,0.09,,,0.35,0.00,VWS V14.01,2013-07-05 04:16:00,
2013-07-04 22:21:00,63.1,59.5,29.87,North,-999,0.0,0.0,88,0.05,,,0.35,0.00,VWS V14.01,2013-07-05 04:21:00,
2013-07-04 22:26:00,63.0,59.7,29.87,North,-999,0.0,0.0,89,0.05,,,0.35,0.00,VWS V14.01,2013-07-05 04:26:00,
2013-07-04 22:31:00,62.9,59.9,29.87,North,-999,5.0,5.0,90,0.03,,,0.35,0.00,VWS V14.01,2013-07-05 04:31:00,
2013-07-04 22:36:00,62.7,60.0,29.87,North,-999,1.0,6.0,91,0.03,,,0.35,0.00,VWS V14.01,2013-07-05 04:36:00,
2013-07-04 22:41:00,62.7,60.0,29.87,North,-999,0.0,0.0,91,0.01,,,0.35,0.00,VWS V14.01,2013-07-05 04:41:00,
2013-07-04 22:46:00,62.9,59.9,29.88,North,-999,6.0,6.0,90,0.01,,,0.35,0.00,VWS V14.01,2013-07-05 04:46:00,
2013-07-04 22:51:00,63.1,59.8,29.88,North,-999,5.0,8.0,89,0.00,,,0.35,0.00,VWS V14.01,2013-07-05 04:51:00,
2013-07-04 22:56:00,63.1,59.8,29.87,North,-999,1.0,8.0,89,0.00,,,0.35,0.00,VWS V14.01,2013-07-05 04:56:00,
2013-07-04 23:01:00,63.1,59.8,29.87,North,-999,2.0,2.0,89,0.00,,,0.35,0.00,VWS V14.01,2013-07-05 05:01:00,
2013-07-04 23:06:00,63.1,59.8,29.87,North,-999,2.0,3.0,89,0.00,,,0.35,0.00,VWS V14.01,2013-07-05 05:06:00,
2013-07-04 23:11:00,63.1,59.8,29.86,North,-999,0.0,0.0,89,0.00,,,0.35,0.00,VWS V14.01,2013-07-05 05:11:00,
2013-07-04 23:16:00,63.1,59.2,29.86,North,-999,3.0,4.0,87,0.00,,,0.35,0.00,VWS V14.01,2013-07-05 05:16:00,
2013-07-04 23:21:00,63.2,59.3,29.86,North,-999,4.0,6.0,87,0.00,,,0.35,0.00,VWS V14.01,2013-07-05 05:21:00,
2013-07-04 23:26:00,63.2,59.3,29.86,North,-999,0.0,6.0,87,0.00,,,0.35,0.00,VWS V14.01,2013-07-05 05:26:00,
2013-07-04 23:31:00,63.1,59.5,29.86,North,-999,0.0,0.0,88,0.00,,,0.35,0.00,VWS V14.01,2013-07-05 05:31:00,
2013-07-04 23:36:00,62.9,59.3,29.85,North,-999,0.0,0.0,88,0.00,,,0.35,0.00,VWS V14.01,2013-07-05 05:36:00,
2013-07-04 23:41:00,62.7,59.1,29.85,North,-999,0.0,0.0,88,0.00,,,0.35,0.00,VWS V14.01,2013-07-05 05:41:00,
2013-07-04 23:46:00,62.7,59.1,29.84,North,-999,0.0,0.0,88,0.00,,,0.35,0.00,VWS V14.01,2013-07-05 05:46:00,
2013-07-04 23:51:00,62.6,58.7,29.85,North,-999,3.0,4.0,87,0.00,,,0.35,0.00,VWS V14.01,2013-07-05 05:51:00,
2013-07-04 23:56:00,62.7,58.8,29.84,North,-999,0.0,4.0,87,0.00,,,0.35,0.00,VWS V14.01,2013-07-05 05:56:00,